User: anonymous   Login
Location: Unspecified
(0.0000°N, 0.0000°E)
Time: 13:52:54
(UTC+00:00)
Language:

Meteor 1-25 - Orbit

View from above orbital plane
View from above orbital plane
View from above satellite
View from above satellite

Ground track
Ground track

The orbit data is extracted from the following two-line orbital elements,

1  8845U 76043A   18199.84362218 -.00000026 +00000-0 -21353-4 0  9995
2  8845 081.2605 250.5552 0039158 216.0054 143.8479 14.11459733317158
Epoch (UTC): 18 July 2018 20:14:48
Eccentricity: 0.0039158
inclination: 81.2605°
perigee height: 826 km
apogee height: 883 km
right ascension of ascending node: 250.5552°
argument of perigee: 216.0054°
revolutions per day: 14.11459733
mean anomaly at epoch: 143.8479°
orbit number at epoch: 31715

The dashed part of the orbit path shows where the satellite is in the earth's shadow,  

DLR